Location: Daybis Observatory
(33.4273°N, 88.8061°W)
Time: 00:01:14
(UTC-05:00)

Daily predictions for brighter satellites

Satellite Brightness Start Highest point End
(mag) Time Altitude Azimuth Time Altitude Azimuth Time Altitude Azimuth
Terra 4.4 00:11:45 14° WNW 00:11:45 14° WNW 00:12:53 10° NW
Cosmos 1833 Rocket 4.2 00:10:08 29° WNW 00:10:08 29° WNW 00:14:52 10° N
Cosmos 1980 Rocket 3.6 00:36:34 10° NNW 00:39:36 33° NW 00:39:36 33° NW
Cosmos 2322 Rocket 3.5 00:44:39 10° N 00:48:24 35° NNE 00:48:24 35° NNE
NOSS 3-1 (C) 4.4 01:04:46 10° NNW 01:12:28 60° ENE 01:13:14 58° E
USA 234 3.5 01:32:58 61° NNW 01:32:58 61° NNW 01:38:18 10° NW
SL-16 R/B 3.7 01:33:08 10° NNW 01:35:59 31° NW 01:35:59 31° NW
Lacrosse 5 rocket 3.9 01:39:21 10° N 01:42:28 21° NNE 01:42:28 21° NNE
NOSS 3-1 (A) 4.2 01:35:15 10° NNW 01:43:05 70° ENE 01:44:05 65° E
Lacrosse 5 3.5 01:57:21 31° N 01:57:21 31° N 02:00:34 10° NNE
Cosmos 2219 3.9 02:10:48 50° NE 02:10:48 50° NE 02:14:59 10° NNE
COSMOS 2428 3.9 02:05:52 10° N 02:11:09 37° ENE 02:12:00 35° E
Cosmos 2360 Rocket 3.2 02:19:28 10° NNW 02:22:59 39° NW 02:22:59 39° NW
Cosmos 1725 Rocket 4.0 02:22:13 10° N 02:28:17 80° NE 02:28:17 80° NE
SL-08 R/B 4.3 02:31:19 44° ENE 02:31:19 44° ENE 02:35:40 10° N
Cosmos 2333 Rocket 3.8 02:39:31 10° N 02:44:36 32° ENE 02:49:16 12° ESE
Resurs 1-4 Rocket 3.0 02:41:25 10° NNE 02:46:22 39° E 02:46:41 38° ESE
IRS-1D 4.4 02:42:57 10° NNE 02:47:59 41° E 02:48:18 40° ESE
AQUA 4.4 02:43:23 10° NNE 02:47:09 56° NNE 02:47:09 56° NNE
CZ-2D R/B 2.9 02:45:38 10° NNE 02:50:33 41° E 02:50:51 41° ESE
SL-16 R/B 3.3 02:52:25 26° SE 02:55:33 49° ENE 03:01:28 10° N
SL-8 R/B 4.4 02:59:49 46° NNW 02:59:49 46° NNW 03:04:03 10° NE
Cosmos 2297 Rocket 2.9 02:58:57 42° ESE 02:59:36 44° ESE 03:04:55 10° NE
ADEOS 4.1 02:56:29 10° NNE 03:01:33 50° E 03:02:04 48° ESE
Cosmos 1500 Rocket 4.2 03:07:23 51° N 03:07:23 51° N 03:10:44 10° N
IRS-1C 4.0 03:03:13 10° N 03:08:30 74° WNW 03:08:30 74° WNW
ATLAS 3B CENTAUR R/B 3.3 03:05:21 35° WSW 03:11:08 62° S 03:17:02 10° E
Cosmos 2219 Rocket 2.4 03:06:00 10° NNW 03:11:41 70° ENE 03:13:56 37° SE
Cosmos 1626 3.2 03:15:14 43° NE 03:15:14 43° NE 03:18:03 10° NNE
COBE Rocket 3.7 03:11:25 10° NNE 03:16:02 78° E 03:16:02 78° E
NOSS 0 Rocket 4.3 03:11:37 10° NNW 03:17:45 61° ENE 03:23:52 10° SSE
Meteor 2-2 Rocket 4.4 03:13:33 10° NNW 03:18:47 55° W 03:18:47 55° W
GPS 2-04 Rocket1 3.3 03:19:42 58° NE 03:19:42 58° NE 03:23:24 10° ENE
Hubble Space Telescope 3.3 03:23:16 12° ESE 03:23:16 12° ESE 03:23:36 10° ESE
Cosmos 1140 Rocket 3.3 03:20:46 75° W 03:20:59 76° WNW 03:26:14 10° NNE
Lacrosse 5 rocket 4.1 03:18:00 10° NW 03:18:04 10° NW 03:18:04 10° NW
CZ-3A R/B 3.4 03:21:53 33° SSE 03:22:27 34° SSE 03:36:55 10° E
Cosmos 2237 Rocket 3.1 03:18:31 10° N 03:23:57 48° ENE 03:29:20 10° SE
Meteor 2-12 Rocket 4.3 03:20:43 10° N 03:26:50 74° W 03:28:17 53° SSW
NOSS 2-1 (D) 3.7 03:29:44 55° NNW 03:29:44 55° NNW 03:33:08 10° NNE
NOSS 2-1 (C) 3.7 03:29:53 56° N 03:29:53 56° N 03:33:18 10° NNE
Cosmos 614 Rocket 3.8 03:28:51 69° SW 03:29:26 80° WNW 03:34:41 10° NNE
Cosmos 1515 Rocket 4.3 03:25:24 10° NNW 03:28:38 41° NW 03:28:38 41° NW
ATLAS 2AS CENTAUR R/B 2.9 03:26:28 10° NNW 03:34:26 87° ENE 03:41:41 10° SSE
Cosmos 2227 Rocket 2.2 03:35:24 54° WSW 03:36:27 65° WNW 03:42:06 10° NNE
Cosmos 2034 Rocket 4.4 03:36:10 10° N 03:42:27 62° E 03:48:41 10° SSE
USA 161 4.3 03:42:56 11° ENE 03:42:56 11° ENE 03:43:36 10° NE
ARIANE 5 R/B 2.5 03:38:10 10° N 03:43:11 60° WNW 03:44:04 52° WSW
Tsikada Rocket 4.3 03:46:05 22° S 03:50:18 68° E 03:56:40 10° NNE
Cosmos 2058 3.9 03:50:53 31° WNW 03:50:53 31° WNW 03:54:03 10° NNW
ADEOS Rocket 3.8 03:43:50 10° N 03:50:56 52° WNW 03:54:18 32° SW
Cosmos 1633 Rocket 3.9 03:48:51 24° SSE 03:51:05 46° E 03:55:16 10° NNE
NOSS 2-1 (E) 4.0 03:51:58 39° WNW 03:52:08 39° NW 03:55:59 10° NNE
Meteor 1-27 4.4 03:47:41 10° NNW 03:53:22 57° W 03:55:27 37° SSW
COSMOS 2428 4.0 03:50:34 10° NW 03:53:57 23° W 03:53:57 23° W
Sich 1 3.2 03:56:29 33° S 03:58:22 71° E 04:02:45 10° N
SL-24 R/B 4.5 03:57:17 10° NNE 04:01:06 49° E 04:02:49 27° SSE
Cosmos 2082 4.2 04:02:05 33° WSW 04:03:54 43° WNW 04:09:15 10° N
DELTA 2 R/B (1) 3.5 04:02:06 36° WSW 04:04:26 88° SSE 04:10:01 10° ENE
Cosmos 1455 2.3 04:09:41 10° NNW 04:13:28 53° W 04:14:26 40° SW
OAO 3 Copernicus 4.4 04:11:03 19° W 04:14:46 77° N 04:19:50 10° E
Lacrosse 4 Rocket 1.9 04:12:56 24° S 04:15:04 52° ESE 04:19:06 10° NE
Cosmos 2208 Rocket 4.0 04:11:41 10° NNW 04:16:54 87° ENE 04:22:09 10° SSE
CZ-2D R/B 3.7 04:13:53 10° N 04:17:47 49° WNW 04:19:09 34° SW
MOZ.5/SAFIR/RUBIN 5/SL-8 3.7 04:15:13 18° S 04:18:44 66° W 04:23:29 10° NNW
BREEZE M DEB (TANK) 3.3 04:19:54 27° S 04:20:58 35° SE 04:23:08 10° ENE
Resurs 1-4 Rocket 3.5 04:21:55 10° NNW 04:25:54 22° WNW 04:27:46 18° W
Cosmos 2333 Rocket 3.0 04:23:52 10° NW 04:28:42 29° WSW 04:31:07 21° SW
APEX 4.5 04:26:25 23° SW 04:30:06 68° WNW 04:37:01 10° NNE
Cosmos 1707 Rocket 3.6 04:25:50 10° NNW 04:30:06 55° W 04:33:29 16° SSW
CZ-2D R/B 3.6 04:26:37 10° NNW 04:30:17 20° WNW 04:32:12 16° W
UNKNOWN OBJECT B 4.0 04:27:27 10° NNW 04:30:53 27° WNW 04:32:06 23° WSW
GOES 2 Rocket 4.4 04:27:29 21° WSW 04:32:42 53° S 04:38:37 10° E
CZ-3 R/B 3.7 03:49:57 10° W 04:34:19 74° S 04:43:20 10° ESE
SL-16 R/B 3.7 04:37:30 19° WSW 04:39:21 21° W 04:43:54 10° NW
Cosmos 1666 Rocket 4.4 04:38:04 22° SW 04:40:10 33° W 04:44:12 10° NNW
Cosmos 1933 4.5 04:36:42 10° N 04:40:38 46° E 04:44:35 10° SSE
MOS 1 Rocket 4.2 04:36:01 10° N 04:40:42 37° WNW 04:44:10 17° SW
Cosmos 468 Rocket 4.4 04:36:37 10° N 04:41:47 66° ENE 04:46:53 10° SSE
ADEOS II 2.2 04:36:39 10° NNE 04:41:56 78° ESE 04:47:10 10° S
Cosmos 2297 Rocket 3.7 04:40:46 15° W 04:43:47 22° WNW 04:48:06 10° N
Cosmos 1241 Rocket 4.4 04:38:10 10° NNW 04:44:35 78° WSW 04:50:50 10° SSE
Cosmos 1862 Rocket 4.1 04:44:01 10° N 04:48:18 61° E 04:52:33 10° SSE
Cosmos 1933 Rocket 3.5 04:45:36 10° S 04:50:02 81° W 04:54:32 10° N
IRS-1C Rocket 4.3 04:46:47 10° NNE 04:52:05 75° ESE 04:57:21 10° S
Cosmos 1634 Rocket 4.0 04:46:44 10° N 04:52:57 89° E 04:59:07 10° S
Cosmos 2219 Rocket 3.9 04:52:46 10° WNW 04:54:55 12° W 04:55:33 12° WSW
Meteor 2-10 Rocket 4.0 04:50:45 10° N 04:55:42 61° E 05:00:40 10° SSE
Okean O Rocket 1.6 04:54:46 10° N 04:59:06 70° WNW 05:03:24 10° SSW
GPS 2-04 Rocket1 3.0 04:55:00 10° WNW 04:59:12 78° N 05:03:32 10° E
Cosmos 1814 Rocket 4.4 04:55:10 10° NNW 05:00:31 70° ENE 05:05:50 10° SSE
Hubble Space Telescope 2.3 04:58:41 14° SW 05:00:34 18° SSW 05:03:28 10° SSE
GP-B 3.1 04:57:45 10° N 05:02:12 85° W 05:06:38 10° S
Cosmos 2227 4.3 04:58:57 10° SSW 05:04:40 71° WNW 05:10:26 10° NNE
CZ-4B R/B 3.3 05:00:38 10° N 05:04:59 55° WNW 05:09:08 10° SSW
SL-16 R/B 2.3 05:00:17 10° NNW 05:05:46 52° WSW 05:11:14 10° S
Meteosat 1 Rocket2 4.2 05:03:55 11° SW 05:06:44 22° SSE 05:09:39 10° ESE
CZ-4B R/B 3.1 05:02:01 10° N 05:07:20 80° WNW 05:12:42 10° SSW
Cosmos 2237 Rocket 3.5 05:03:49 10° WNW 05:07:32 18° W 05:11:15 10° SW
Cosmos 1400 Rocket 2.7 05:04:05 10° S 05:07:56 81° W 05:11:52 10° N
Cosmos 1763 Rocket 4.0 05:05:46 10° N 05:10:59 65° ENE 05:16:06 10° SSE
CZ-4B DEB 4.3 05:10:12 10° N 05:15:36 65° WNW 05:21:00 10° SSW
ISS -3.2 05:15:21 10° NW 05:18:36 61° NE 05:21:49 10° SE
ATLAS 2AS CENTAUR R/B 4.3 05:20:23 10° WNW 05:24:14 15° WSW 05:27:57 10° SW
Cosmos 332 Rocket 3.8 05:19:39 10° NNW 05:24:27 67° WSW 05:29:16 10° S
Okean-O 3.5 05:20:11 10° NNE 05:24:31 52° E 05:28:50 10° S
NOSS 3-4 (A) 3.9 05:18:27 10° NNW 05:25:39 83° WSW 05:33:16 10° SSE
NOSS 3-4 (C) 3.9 05:18:34 10° NNW 05:25:45 84° WSW 05:33:23 10° SSE
ATLAS 5 CENTAUR R/B 2.4 05:21:47 10° SSW 05:26:14 55° ESE 05:31:00 10° NE
